Location: Colorado Springs
(38.8340°N, 104.8210°W)
Time: 19:03:45
(UTC-07:00)

Vanguard 3 - Pass Details

Date: 31 October 2017
Orbit: 509 x 3263 km, 33.3° (Epoch: 22 November)

Event Time Altitude Azimuth Distance (km) Brightness Sun altitude
Rises 03:13:15 0° 254° (WSW) 7,209 - -48.8°
Reaches altitude 10° 03:18:09 10° 253° (WSW) 6,198 - -47.9°
Maximum altitude 03:37:35 71° 175° (S) 2,830 - -44.5°
Exits shadow 03:37:44 71° 172° (S) 2,823 9.5 -44.4°
Drops below altitude 10° 03:50:28 10° 95° (E) 4,327 11.4 -42.1°
Sets 03:53:15 0° 93° (E) 5,018 12.0 -41.6°
